Time,TemperatureF,DewpointF,PressureIn,WindDirection,WindDirectionDegrees,WindSpeedMPH,WindSpeedGustMPH,Humidity,HourlyPrecipIn,Conditions,Clouds,dailyrainin,SoftwareType,DateUTC
2013-08-19 00:01:00,65.0,44.0,-100.00,SW,215,5.0,9.0,47,0.00,,,-99.99,,2013-08-19 07:01:00,
2013-08-19 00:11:00,65.0,44.0,-100.00,SW,215,5.0,9.0,47,0.00,,,-99.99,,2013-08-19 07:11:00,
2013-08-19 00:42:00,63.0,48.0,-100.00,South,184,11.0,21.0,57,0.00,,,-99.99,,2013-08-19 07:42:00,
2013-08-19 00:52:00,63.0,48.0,-100.00,South,184,11.0,21.0,57,0.00,,,-99.99,,2013-08-19 07:52:00,
2013-08-19 01:01:00,63.0,48.0,-100.00,South,184,11.0,21.0,57,0.00,,,-99.99,,2013-08-19 08:01:00,
2013-08-19 01:11:00,63.0,48.0,-100.00,South,184,11.0,21.0,57,0.00,,,-99.99,,2013-08-19 08:11:00,
2013-08-19 01:42:00,61.0,47.0,-100.00,SSW,205,12.0,21.0,60,0.00,,,-99.99,,2013-08-19 08:42:00,
2013-08-19 02:11:00,60.0,46.0,-100.00,SSW,202,4.0,9.0,59,0.00,,,-99.99,,2013-08-19 09:11:00,
2013-08-19 02:21:00,59.0,48.0,-100.00,SW,220,8.0,12.0,66,0.00,,,-99.99,,2013-08-19 09:21:00,
2013-08-19 02:43:00,59.0,48.0,-100.00,SW,216,7.0,10.0,66,0.00,,,-99.99,,2013-08-19 09:43:00,
2013-08-19 03:12:00,58.0,47.0,-100.00,South,191,2.0,4.0,68,0.00,,,-99.99,,2013-08-19 10:12:00,
2013-08-19 03:22:00,58.0,48.0,-100.00,NE,54,5.0,8.0,70,0.00,,,-99.99,,2013-08-19 10:22:00,
2013-08-19 03:33:00,58.0,48.0,-100.00,NE,54,5.0,8.0,70,0.00,,,-99.99,,2013-08-19 10:33:00,
2013-08-19 03:42:00,58.0,48.0,-100.00,NE,54,5.0,8.0,70,0.00,,,-99.99,,2013-08-19 10:42:00,
2013-08-19 04:12:00,58.0,48.0,-100.00,NE,48,5.0,7.0,69,0.00,,,-99.99,,2013-08-19 11:12:00,
2013-08-19 04:21:00,58.0,48.0,-100.00,NE,48,5.0,7.0,69,0.00,,,-99.99,,2013-08-19 11:21:00,
2013-08-19 04:33:00,58.0,48.0,-100.00,NE,48,5.0,7.0,69,0.00,,,-99.99,,2013-08-19 11:33:00,
2013-08-19 04:52:00,59.0,47.0,-100.00,NE,44,6.0,10.0,64,0.00,,,-99.99,,2013-08-19 11:52:00,
2013-08-19 05:01:00,59.0,47.0,-100.00,NE,44,6.0,10.0,64,0.00,,,-99.99,,2013-08-19 12:01:00,
2013-08-19 05:11:00,59.0,47.0,-100.00,NE,44,6.0,10.0,64,0.00,,,-99.99,,2013-08-19 12:11:00,
2013-08-19 05:21:00,59.0,47.0,-100.00,North,-999,-999.0,-999.0,64,0.00,,,-99.99,,2013-08-19 12:21:00,
2013-08-19 05:41:00,56.0,47.0,-100.00,WNW,287,1.0,3.0,71,0.00,,,-99.99,,2013-08-19 12:41:00,
2013-08-19 05:42:00,59.0,47.0,-100.00,NE,34,5.0,8.0,64,0.00,,,-99.99,,2013-08-19 12:42:00,
2013-08-19 05:52:00,58.0,48.0,-100.00,East,88,3.0,7.0,70,0.00,,,-99.99,,2013-08-19 12:52:00,
2013-08-19 06:03:00,58.0,48.0,-100.00,East,88,3.0,7.0,70,0.00,,,-99.99,,2013-08-19 13:03:00,
2013-08-19 06:22:00,56.0,47.0,-100.00,WNW,287,1.0,3.0,71,0.00,,,-99.99,,2013-08-19 13:22:00,
2013-08-19 06:32:00,56.0,47.0,-100.00,WNW,287,1.0,3.0,71,0.00,,,-99.99,,2013-08-19 13:32:00,
2013-08-19 06:52:00,54.0,47.0,-100.00,WSW,258,1.0,5.0,77,0.00,,,-99.99,,2013-08-19 13:52:00,
2013-08-19 07:02:00,54.0,47.0,-100.00,WSW,258,1.0,5.0,77,0.00,,,-99.99,,2013-08-19 14:02:00,
2013-08-19 07:11:00,54.0,47.0,-100.00,WSW,258,1.0,5.0,77,0.00,,,-99.99,,2013-08-19 14:11:00,
2013-08-19 07:42:00,53.0,47.0,-100.00,North,-999,0.0,0.0,80,0.00,,,-99.99,,2013-08-19 14:42:00,
2013-08-19 07:44:00,57.0,48.0,-100.00,North,-999,0.0,0.0,72,0.00,,,-99.99,,2013-08-19 14:44:00,
2013-08-19 07:52:00,53.0,47.0,-100.00,North,-999,0.0,0.0,80,0.00,,,-99.99,,2013-08-19 14:52:00,
2013-08-19 08:11:00,57.0,48.0,-100.00,North,-999,0.0,0.0,72,0.00,,,-99.99,,2013-08-19 15:11:00,
2013-08-19 08:22:00,57.0,48.0,-100.00,North,-999,0.0,0.0,72,0.00,,,-99.99,,2013-08-19 15:22:00,
2013-08-19 08:34:00,57.0,48.0,-100.00,North,-999,0.0,0.0,72,0.00,,,-99.99,,2013-08-19 15:34:00,
2013-08-19 08:54:00,63.0,48.0,-100.00,North,6,0.0,3.0,59,0.00,,,-99.99,,2013-08-19 15:54:00,
2013-08-19 09:05:00,63.0,48.0,-100.00,North,6,0.0,3.0,59,0.00,,,-99.99,,2013-08-19 16:05:00,
2013-08-19 09:23:00,68.0,45.0,-100.00,SSW,210,4.0,8.0,44,0.00,,,-99.99,,2013-08-19 16:23:00,
2013-08-19 09:47:00,69.0,45.0,-100.00,SW,216,6.0,10.0,42,0.00,,,-99.99,,2013-08-19 16:47:00,
2013-08-19 10:03:00,70.0,45.0,-100.00,SW,223,7.0,13.0,40,0.00,,,-99.99,,2013-08-19 17:03:00,
2013-08-19 10:30:00,71.0,-99.9,-100.00,SSW,198,8.0,16.0,37,0.00,,,-99.99,,2013-08-19 17:30:00,
2013-08-19 10:49:00,72.0,44.0,-100.00,SSW,208,9.0,16.0,36,0.00,,,-99.99,,2013-08-19 17:49:00,
2013-08-19 10:57:00,71.0,43.0,-100.00,SSW,198,10.0,17.0,37,0.00,,,-99.99,,2013-08-19 17:57:00,
2013-08-19 11:05:00,71.0,43.0,-100.00,SSW,198,10.0,17.0,37,0.00,,,-99.99,,2013-08-19 18:05:00,
2013-08-19 11:28:00,73.0,44.0,-100.00,SSW,203,10.0,19.0,35,0.00,,,-99.99,,2013-08-19 18:28:00,
2013-08-19 11:50:00,-999.0,-99.9,-100.00,SSW,208,11.0,17.0,38,0.00,,,-99.99,,2013-08-19 18:50:00,
2013-08-19 12:00:00,-999.0,-99.9,-100.00,SSW,202,8.0,15.0,36,0.00,,,-99.99,,2013-08-19 19:00:00,
2013-08-19 12:07:00,72.0,44.0,-100.00,SSW,202,8.0,15.0,36,0.00,,,-99.99,,2013-08-19 19:07:00,
2013-08-19 12:08:00,72.0,44.0,-100.00,SW,217,9.0,16.0,37,0.00,,,-99.99,,2013-08-19 19:08:00,
2013-08-19 12:16:00,72.0,44.0,-100.00,SSW,202,8.0,15.0,36,0.00,,,-99.99,,2013-08-19 19:16:00,
2013-08-19 12:30:00,-999.0,-99.9,-100.00,SSW,202,8.0,15.0,36,0.00,,,-99.99,,2013-08-19 19:30:00,
2013-08-19 12:49:00,75.0,41.0,-100.00,SSW,208,9.0,15.0,30,0.00,,,-99.99,,2013-08-19 19:49:00,
2013-08-19 12:50:00,72.0,44.0,-100.00,SW,217,9.0,16.0,37,0.00,,,-99.99,,2013-08-19 19:50:00,
2013-08-19 12:59:00,72.0,44.0,-100.00,SW,217,9.0,16.0,37,0.00,,,-99.99,,2013-08-19 19:59:00,
2013-08-19 13:30:00,75.0,41.0,-100.00,SSW,208,9.0,15.0,30,0.00,,,-99.99,,2013-08-19 20:30:00,
2013-08-19 13:39:00,75.0,41.0,-100.00,SSW,208,9.0,15.0,30,0.00,,,-99.99,,2013-08-19 20:39:00,
2013-08-19 14:00:00,-999.0,-99.9,-100.00,SW,217,11.0,20.0,-999,-99.99,,,-99.99,,2013-08-19 21:00:00,
2013-08-19 14:16:00,78.0,42.0,-100.00,SW,217,11.0,20.0,28,0.00,,,-99.99,,2013-08-19 21:16:00,
2013-08-19 14:25:00,78.0,42.0,-100.00,SW,217,11.0,20.0,28,0.00,,,-99.99,,2013-08-19 21:25:00,
2013-08-19 14:54:00,80.0,40.0,-100.00,South,191,9.0,26.0,24,0.00,,,-99.99,,2013-08-19 21:54:00,
2013-08-19 15:06:00,80.0,40.0,-100.00,South,191,9.0,26.0,24,0.00,,,-99.99,,2013-08-19 22:06:00,
2013-08-19 15:12:00,73.0,45.0,-100.00,NE,55,15.0,24.0,37,0.00,,,-99.99,,2013-08-19 22:12:00,
2013-08-19 15:44:00,73.0,45.0,-100.00,NE,55,15.0,24.0,37,0.00,,,-99.99,,2013-08-19 22:44:00,
2013-08-19 15:54:00,73.0,45.0,-100.00,NE,55,15.0,24.0,37,0.00,,,-99.99,,2013-08-19 22:54:00,
2013-08-19 16:05:00,73.0,45.0,-100.00,NE,55,15.0,24.0,37,0.00,,,-99.99,,2013-08-19 23:05:00,
2013-08-19 16:25:00,77.0,41.0,-100.00,ENE,64,11.0,17.0,28,0.00,,,-99.99,,2013-08-19 23:25:00,
2013-08-19 16:48:00,75.0,42.0,-100.00,ENE,76,13.0,22.0,31,0.00,,,-99.99,,2013-08-19 23:48:00,
2013-08-19 17:11:00,72.0,45.0,-100.00,East,95,18.0,29.0,38,0.00,,,-99.99,,2013-08-20 00:11:00,
2013-08-19 17:23:00,71.0,45.0,-100.00,East,86,17.0,28.0,40,0.00,,,-99.99,,2013-08-20 00:23:00,
2013-08-19 17:41:00,70.0,46.0,-100.00,East,93,17.0,28.0,42,0.00,,,-99.99,,2013-08-20 00:41:00,
2013-08-19 18:11:00,70.0,45.0,-100.00,East,83,11.0,19.0,41,0.00,,,-99.99,,2013-08-20 01:11:00,
2013-08-19 18:22:00,70.0,45.0,-100.00,East,83,11.0,19.0,41,0.00,,,-99.99,,2013-08-20 01:22:00,
2013-08-19 18:42:00,72.0,44.0,-100.00,ENE,72,9.0,16.0,37,0.00,,,-99.99,,2013-08-20 01:42:00,
2013-08-19 19:11:00,72.0,44.0,-100.00,East,89,6.0,15.0,36,0.00,,,-99.99,,2013-08-20 02:11:00,
2013-08-19 19:21:00,72.0,44.0,-100.00,East,89,6.0,15.0,36,0.00,,,-99.99,,2013-08-20 02:21:00,
2013-08-19 19:42:00,71.0,42.0,-100.00,SE,127,5.0,10.0,35,0.00,,,-99.99,,2013-08-20 02:42:00,
2013-08-19 20:11:00,69.0,42.0,-100.00,SE,124,2.0,5.0,37,0.00,,,-99.99,,2013-08-20 03:11:00,
2013-08-19 20:22:00,68.0,42.0,-100.00,ESE,107,1.0,3.0,39,0.00,,,-99.99,,2013-08-20 03:22:00,
2013-08-19 20:33:00,68.0,42.0,-100.00,ESE,107,1.0,3.0,39,0.00,,,-99.99,,2013-08-20 03:33:00,
2013-08-19 20:43:00,68.0,42.0,-100.00,ESE,107,1.0,3.0,39,0.00,,,-99.99,,2013-08-20 03:43:00,
2013-08-19 20:53:00,68.0,42.0,-100.00,ESE,107,1.0,3.0,39,0.00,,,-99.99,,2013-08-20 03:53:00,
2013-08-19 21:23:00,59.0,41.0,-100.00,NNW,343,0.0,2.0,51,0.00,,,-99.99,,2013-08-20 04:23:00,
2013-08-19 22:42:00,58.0,40.0,-100.00,NNW,342,1.0,2.0,52,0.00,,,-99.99,,2013-08-20 05:42:00,
2013-08-19 22:52:00,58.0,40.0,-100.00,NNW,342,1.0,2.0,52,0.00,,,-99.99,,2013-08-20 05:52:00,